sat.trackr.live / text

‹ back to catalog

COSMOS 2550

NORAD 48865 · 2021-056A

PAYLOAD ACTIVE UNKNOWN

§ Identity

Operator
Country
CIS
Launch date
2021-06-25
Launch site
PLMSC
Launch vehicle
Mass (kg)
RCS (m²)

External: N2YO · Heavens-Above · Gunter

§ Orbital elements

Epoch: 2026-09-13T04:25:59.793312Z

Period
93.88 min
Inclination
67.1433°
Eccentricity
0.0008352
Mean motion
15.33833021 rev/d
Perigee alt
458.7 km
Apogee alt
470.1 km
Semi-major
6,842.5 km
B*
1.3416e-4
RAAN
193.7119°
Arg perigee
268.5974°
Mean anomaly
91.4223°
Rev number
29,221

§ Raw data

COSMOS 25501 48865U 21056A   26256.18471983  .00004225  00000+0  13416-3 0  99972 48865  67.1433 193.7119 0008352 268.5974  91.4223 15.33833021292213

JSON: /api/v1/satellites/48865 · /tle

For live sub-satellite position, see the globe view (requires WebGL).

§ Visibility from observer

Set your observer location to see the next 7 days of passes ≥ 10°. The values pass through the URL so the page stays shareable.

No JS? Fill the form by hand. The geolocation button needs JavaScript.